Regional Weather Roundup
Issued by NWS Green Bay, WI

Home | Current Version | Previous Version | Graphics & Text | Print | Product List | Glossary Off
Versions: 1 2 3 4 5 6 7 8 9 10 11 12 13 14 15 16 17 18 19 20 21 22 23 24 25 26 27 28 29 30 31 32 33 34 35 36 37 38 39 40 41 42 43 44 45 46 47 48 49 50

813
ASUS43 KGRB 250611
RWRGRB

NORTH-CENTRAL AND NORTHEAST WISCONSIN REGIONAL WEATHER ROUNDUP
NATIONAL WEATHER SERVICE GREEN BAY WI
100 AM CDT TUE APR 25 2017

WIZ005-009-010>012-018-019-250700-
NORTH CENTRAL WISCONSIN

CITY           SKY/WX    TMP DP  RH WIND       PRES   REMARKS
IRONWOOD       CLOUDY    59  36  42 SE13G20   29.66S
MANITOWISH WTR CLOUDY    53  34  47 SE7       29.70R
ARBOR VITAE    CLOUDY    54  35  47 SE8       29.70F
EAGLE RIVER    CLOUDY    49  32  51 SE8       29.72F
LAND O LAKES   CLOUDY    49  33  53 SE8       29.75F
RHINELANDER    CLOUDY    52  34  50 E8        29.72F
PHILLIPS       CLOUDY    55  37  51 CALM      29.69R
ANTIGO         CLOUDY    49  35  60 SE15G24   29.74S
TOMAHAWK       CLOUDY    54  30  40 CALM      29.70F
MERRILL        CLOUDY    56  32  40 SE8       29.71S
$$

WIZ013-073-250700-
NORTHEAST WISCONSIN

CITY           SKY/WX    TMP DP  RH WIND       PRES   REMARKS
IRON MOUNTAIN  CLOUDY    43  34  70 SE6       29.78F
MARINETTE      MOCLDY    43  38  82 NW5       29.81R
OCONTO         CLOUDY    43  37  77 E5        29.78F
$$

WIZ017-030-035>037-045-250700-
CENTRAL WISCONSIN

CITY           SKY/WX    TMP DP  RH WIND       PRES   REMARKS
MEDFORD        CLOUDY    55  33  42 SE7       29.67F
WAUSAU         CLOUDY    58  31  35 SE10      29.69S
MOSINEE        CLOUDY    55  32  41 SE8       29.71S
MARSHFIELD     CLOUDY    58  34  40 S9        29.68S
WISC RAPIDS    NOT AVBL
STEVENS POINT  CLOUDY    60  32  35 SE7       29.71S
WAUPACA        CLOUDY    60  30  31 SE9       29.74F
SHAWANO        CLOUDY    49  40  72 E15       29.79R
CLINTONVILLE   DRIZZLE   55  32  41 SE10      29.76F
WAUTOMA        CLOUDY    61  30  31 SE7       29.73F
$$

WIZ038-039-048-051-250700-
FOX VALLEY

CITY           SKY/WX    TMP DP  RH WIND       PRES   REMARKS
NWS GREEN BAY  CLOUDY    50  38  63 CALM      29.79R
APPLETON       CLOUDY    57  28  33 E6        29.76S
OSHKOSH        CLOUDY    57  33  40 NE8       29.73R
FOND DU LAC    CLOUDY    60  29  30 SE8       29.74R
$$

WIZ022-050-052-250700-
EAST CENTRAL WISCONSIN

CITY           SKY/WX    TMP DP  RH WIND       PRES   REMARKS
EPHRAIM        FAIR      46  38  76 SE6       29.79F
WASHINGTON ISL FAIR      48  38  68 SE6       29.80S
STURGEON BAY   MOCLDY    48  36  63 SE8       29.79F
MANITOWOC      CLOUDY    43  39  86 E12       29.77F
SHEBOYGAN      CLOUDY    45  39  79 E8        29.77F
$$

LMZ563-521-522-541>543-250700-
LAKESHORE

STATION/POSITION TIME  TEMP    WIND        PRES    VSBY  WAVE
                       AIR SEA DIR/SP/G                  HT/PER
                 (UTC) (F)     (DEG/KT/KT) (MB)    (MI)  (FT/S)
SHEBOYGAN LKSHOR 0600   48      10/  1/  2 1008.9R
KEWAUNEE LKSHORE 0548   49     130/  3/  4 1008.5F
ALGOMA MARINA    0514             CALM       N/A
NORTHPORT PIER   0540   44     200/  2/  4 1009.8R
N MID LAKE BUOY  0550   43 37  120/ 14/ 14 1010.8F         2/ 4
SISTER BAY LKSHO 0521   46     140/  7/ 10   N/A
CHAMBERS ISLAND  0540   46      CALM  /  4 1008.8F
MENOMINEE LKSHOR 0548   44     330/  6/  6 1008.5R
$$




USA.gov is the U.S. government's official web portal to all federal, state and local government web resources and services.